Regional Weather Roundup
Issued by NWS

Home | Current Version | Previous Version | Text Only | Print | Product List | Glossary Off
Versions: 1 2 3 4 5 6 7 8 9 10 11 12 13 14 15 16 17 18 19 20 21 22 23 24 25 26 27 28 29 30 31 32 33 34 35 36 37 38 39 40 41 42 43 44 45 46 47 48 49 50

000
ASUS43 KLOT 172206
RWRIL

ILLINOIS REGIONAL WEATHER ROUNDUP
NATIONAL WEATHER SERVICE CHICAGO/ROMEOVILLE IL
500 PM CDT THU APR 17 2014

NOTE: "FAIR" INDICATES FEW OR NO CLOUDS BELOW 12,000 FEET WITH NO
SIGNIFICANT WEATHER AND/OR OBSTRUCTIONS TO VISIBILITY.

* THESE STATIONS ARE NOT UNDER NWS QUALITY CONTROL. THEY ALSO MAY NOT
  REPORT WEATHER SUCH AS PRECIPITATION OR FOG.

ILZ001-002-007-009-015-016-024-172300-
NORTHWEST ILLINOIS

CITY           SKY/WX    TMP DP  RH WIND       PRES   REMARKS
MOLINE         MOSUNNY   54  35  48 NW6       30.23R
STERLING*      MOSUNNY   57  39  51 W12       30.21S
SAVANNA*       SUNNY     57  36  45 W8        30.21S
$$

ILZ003-004-008-010-011-017-018-172300-
NORTH CENTRAL ILLINOIS

CITY           SKY/WX    TMP DP  RH WIND       PRES   REMARKS
ROCKFORD       CLOUDY    57  36  45 W9        30.22S
FREEPORT*      SUNNY     59  40  48 NW7       30.22S
ROCHELLE*      MOSUNNY   58  37  44 SW9       30.21S
DE KALB*       MOSUNNY   56  38  50 SW12G18   30.21S
$$

ILZ005-006-012>014-019>023-172300-
NORTHEAST ILLINOIS

CITY           SKY/WX    TMP DP  RH WIND       PRES   REMARKS
CHICAGO-OHARE  CLOUDY    60  37  42 SW13      30.19R
CHICAGO-MIDWAY CLOUDY    60  40  47 W10       30.20R
AURORA         MOSUNNY   58  37  45 SW9       30.21R
LANSING*       CLOUDY    59  37  42 W12G17    30.20S
WAUKEGAN       MOSUNNY   58  37  45 SW9       30.19R
DUPAGE AIRPORT MOSUNNY   59  38  45 SW9       30.20R
KANKAKEE*      CLOUDY    62  39  43 W13G22    30.21R
WHEELING       MOSUNNY   60  38  43 SW10      30.20R
MORRIS*        PTSUNNY   61  34  36 W9G16     30.21R
NORTHERLY ISL    N/A     60  38  43 W5          N/A
$$

LMZ740>746-172300-
SOUTHERN LAKE MICHIGAN

STATION/POSITION SKY/WX   TEMP    WIND        PRES    VSBY  WAVE
                          AIR SEA DIR/SP/G                  HT/PER
                          (F)     (DEG/KT/KT) (MB)    (MI)  (FT/S)
WAUKEGAN HARBOR            58     280/ 10/ 12 1023.0S
HARRISON CRIB              58     250/ 12/ 15   N/A
BURNHAM HARBOR             60     260/  7/ 13   N/A
CALUMET HARBOR             60     220/  8/ 12 1023.0S
MICHIGAN CITY              50     250/  3/  3   N/A
$$

ILZ025>027-034>036-040-047-049-050-058-095>099-172300-
WEST-CENTRAL ILLINOIS

CITY           SKY/WX    TMP DP  RH WIND       PRES   REMARKS
QUINCY         CLOUDY    52  36  54 W3        30.25S
GALESBURG*     MOSUNNY   53  38  58 SW6       30.25R
MACOMB*        CLOUDY    52  36  54 W6        30.28R
JACKSONVILLE*  CLOUDY    57  39  50 W5        30.25S
PITTSFIELD*    CLOUDY    55  38  53 W5        30.27R
$$

ILZ028>032-037-038-041>044-048-051>054-059>061-172300-
CENTRAL ILLINOIS

CITY           SKY/WX    TMP DP  RH WIND       PRES   REMARKS
PONTIAC        CLOUDY    61  39  44 W12       30.22R
BLOOMINGTON    CLOUDY    57  38  49 SW10      30.23S
DECATUR        CLOUDY    61  38  42 W8        30.23S
PEORIA         PTSUNNY   56  37  49 NW9       30.24R
LACON*         PTSUNNY   56  38  51 W9        30.23R
LINCOLN*       CLOUDY    60  39  45 W3        30.23R
SPRINGFIELD    CLOUDY    60  37  42 NW9       30.24R
TAYLORVILLE    CLOUDY    61  37  41 SW3       30.23S
$$

ILZ033-039-045-046-055>057-062-063-172300-
EAST-CENTRAL ILLINOIS

CITY           SKY/WX    TMP DP  RH WIND       PRES   REMARKS
CHAMPAIGN      CLOUDY    63  37  38 SW13      30.22S
RANTOUL*       CLOUDY    64  37  36 SW13      30.23R
MATTOON        PTSUNNY   64  35  34 SW10      30.22S
PARIS*         MOSUNNY   66  39  37 SW9       30.24R
$$

ILZ079-100>102-172300-
SOUTHWEST ILLINOIS

CITY           SKY/WX    TMP DP  RH WIND       PRES   REMARKS
ALTON          PTSUNNY   64  32  29 VRB3      30.23S
BELLEVILLE     PTSUNNY   65  38  36 SE8       30.21R
CAHOKIA*       CLOUDY    67  40  37 NE3       30.21R
SPARTA*        MOSUNNY   66  34  30 S5        30.22S
$$

ILZ064>066-069>071-074>076-080>082-084>086-088>090-092>094-172300-
SOUTH-CENTRAL ILLINOIS

CITY           SKY/WX    TMP DP  RH WIND       PRES   REMARKS
CARBONDALE     SUNNY     66  41  40 S8        30.22S
CAIRO*         MOSUNNY   70  40  34 S9        30.24S
MARION         PTSUNNY   68  39  34 S9        30.24S
MT. VERNON     PTSUNNY   68  36  30 S12       30.24R
CENTRALIA*       N/A     66  33  29 CALM      30.23R
SALEM*         PTSUNNY   67  38  33 SW8       30.22F
METROPOLIS*    MOSUNNY   68  33  27 S5        30.23S
$$

ILZ067-068-072-073-078-083-087-091-172300-
SOUTHEAST ILLINOIS

CITY           SKY/WX    TMP DP  RH WIND       PRES   REMARKS
FAIRFIELD*     MOSUNNY   68  37  32 S8        30.24R
HARRISBURG*    SUNNY     68  38  33 SW7       30.24S
ROBINSON*      MOSUNNY   67  40  37 S13       30.25R
CARMI*         MOSUNNY   68  42  38 SE10G16   30.24S
$$

ABBREVIATIONS USED IN REMARKS
   TC - TEMPERATURE IN CELSIUS
  WCI - WIND CHILL INDEX
   HX - HEAT INDEX
  VSB - VISIBILITY
$$




USA.gov is the U.S. government's official web portal to all federal, state and local government web resources and services.